Hourly Data Report for January 10, 2003

TORONTO CITY
ONTARIO

43°40'00.000" N
79°24'00.000" W
112.50 m
6158355
71508
XTO

Download Data

Hourly Data (January 2003)
Hourly Data Report for January 10, 2003
TIME
LST
Temp Definition
°C
Dew Point Definition
°C
Rel Hum Definition
%
Precip. Amount Definition
mm

Wind Dir Definition
10's deg

Wind Spd Definition
km/h
Visibility Definition
km
Stn Press Definition
kPa
Hmdx Definition


Wind Chill Definition


Weather Definition


00:00 -4.1 -7.0 80     0 LegendMM 98.42     LegendNANA
01:00
02:00 -5.5 -9.7 72     0 LegendMM 98.65     LegendNANA
03:00 -6.3 -9.9 76     0 LegendMM 98.78     LegendNANA
04:00 -7.2 -10.1 80     0 LegendMM 98.84     LegendNANA
05:00 -7.7 -11.0 77     0 LegendMM 98.88     LegendNANA
06:00 -8.8 -11.9 78     0 LegendMM 98.92     LegendNANA
07:00 -8.8 -13.0 72     0 LegendMM 98.97     LegendNANA
08:00 -8.0 -13.0 67     0 LegendMM 98.99     LegendNANA
09:00 -7.3 -12.5 66     0 LegendMM 98.98     LegendNANA
10:00
11:00 -4.1 -8.7 70     0 LegendMM 98.90     LegendNANA
12:00 -3.6 -8.4 69     0 LegendMM 98.78     LegendNANA
13:00 -2.5 -8.9 61     0 LegendMM 98.67     LegendNANA
14:00 -2.3 -9.3 59     0 LegendMM 98.63     LegendNANA
15:00 -2.7 -9.5 59     0 LegendMM 98.64     LegendNANA
16:00 -4.1 -6.6 83     0 LegendMM 98.72     LegendNANA
17:00
18:00 -7.2 -11.1 74     0 LegendMM 98.98     LegendNANA
19:00 -7.7 -11.4 75     0 LegendMM 99.06     LegendNANA
20:00
21:00 -8.3 -11.7 76     0 LegendMM 99.20     LegendNANA
22:00 -7.9 -12.5 69     0 LegendMM 99.20     LegendNANA
23:00 -7.5 -11.9 71     0 LegendMM 99.19     LegendNANA

Notes on Data Quality.

Legend

  • E = Estimated
  • M = Missing
  • NA = Not Available*
  • [empty] = Indicates an unobserved value
Date modified: